Home   Weather   Rietberg   Past weeks

Flag for Germany Past Weather in Rietberg, North Rhine-Westphalia, Germany — Yesterday and Last 2 Weeks

Now
66 °F

Sunny.


Feels Like: 66 °F
Forecast: 60 / 67 °F
Wind: 12 mph from Southwest

Location: Paderborn / Lippstadt

Current Time: Aug 17, 2017 at 9:32:26 pm

Latest Report: Aug 17, 2017 at 8:20 pm


Visibility: 10 mi

Pressure: 30.01 "Hg

Humidity: 73%

Dew Point: 57 °F

Location of RietbergLocation

Past Weather in Rietberg — Graph

°F

Rietberg Temperature Yesterday

Maximum temperature yesterday: 73 °F (at 4:20 pm)
Minimum temperature yesterday: 63 °F (at 4:50 am)
Average temperature yesterday: 67 °F

High & Low Weather Summary for the Past Weeks

 TemperatureHumidityPressure
High79 °F (Aug 15, 11:50 am)100% (Aug 3, 1:50 am)30.24 "Hg (Aug 3, 1:50 am)
Low50 °F (Aug 7, 2:50 am)31% (Aug 7, 4:20 pm)29.80 "Hg (Aug 8, 10:50 am)
Average63 °F73%30.03 "Hg
* Reported Aug 2 8:20 pm — Aug 17 8:20 pm, Rietberg. Weather by CustomWeather, © 2017

Note: Actual official high and low records may vary slightly from our data, if they occured in-between our weather recording intervals... More about our weather records

Advertising

Rietberg Weather History for the Previous 24 Hours

Scroll right to see more
 ConditionsComfort  
Time TempWeatherWind HumidityBarometerVisibility
8:20 pm
Thu, Aug 17
66 °FSunny.12 mph73%30.01 "Hg10 mi
7:50 pm68 °FPassing clouds.14 mph69%29.98 "HgN/A
7:20 pm68 °FScattered clouds.15 mph73%29.98 "HgN/A
6:50 pm70 °FPartly sunny.15 mph69%30.01 "HgN/A
6:20 pm70 °FBroken clouds.13 mph69%30.01 "HgN/A
5:50 pm70 °FScattered clouds.14 mph69%30.01 "HgN/A
5:20 pm70 °FLight rain. Scattered clouds.15 mph69%30.01 "HgN/A
4:50 pm72 °FLight rain. Partly sunny.15 mph61%29.98 "HgN/A
4:20 pm73 °FScattered clouds.16 mph53%29.98 "HgN/A
3:50 pm73 °FScattered clouds.10 mph57%29.98 "HgN/A
3:20 pm73 °FPassing clouds.12 mph57%29.98 "HgN/A
2:50 pm73 °FScattered clouds.12 mph57%29.98 "HgN/A
2:20 pm73 °FScattered clouds.12 mph53%30.01 "HgN/A
1:50 pm75 °FPassing clouds.10 mph47%30.01 "HgN/A
1:20 pm75 °FSunny.13 mph47%30.01 "Hg10 mi
12:50 pm75 °FSunny.10 mph54%30.01 "Hg10 mi
12:20 pm73 °FPassing clouds.13 mph53%30.01 "HgN/A
11:50 am73 °FPassing clouds.10 mph53%30.01 "HgN/A
11:20 am73 °FSunny.12 mph50%30.04 "Hg10 mi
10:50 am72 °FPassing clouds.9 mph57%30.04 "HgN/A
10:20 am72 °FSunny.10 mph57%30.04 "Hg10 mi
9:20 am68 °FPassing clouds.8 mph69%30.04 "HgN/A
8:50 am68 °FSunny.6 mph73%30.04 "Hg10 mi
8:20 am66 °FSunny.8 mph73%30.04 "Hg10 mi
7:50 am66 °FSunny.10 mph73%30.04 "Hg10 mi
7:20 am64 °FSunny.9 mph78%30.07 "Hg10 mi
6:50 am64 °FSunny.8 mph78%30.07 "Hg10 mi
6:20 am64 °FSunny.9 mph73%30.07 "Hg10 mi
5:50 am63 °FClear.8 mph77%30.07 "Hg10 mi
5:20 am64 °FClear.5 mph73%30.07 "Hg10 mi
4:20 am66 °FPassing clouds.6 mph64%30.07 "HgN/A
3:50 am64 °FClear.7 mph68%30.07 "Hg10 mi
3:20 am64 °FPassing clouds.6 mph68%30.07 "HgN/A
2:50 am63 °FClear.5 mph73%30.09 "Hg10 mi
1:50 am64 °FClear.5 mph73%30.09 "Hg10 mi
1:20 am64 °FPassing clouds.3 mph73%30.09 "HgN/A
12:50 am64 °FClear.5 mph73%30.09 "Hg10 mi
12:20 am64 °FClear.2 mph73%30.12 "Hg10 mi
11:50 pm
Wed, Aug 16
64 °FPassing clouds.3 mph73%30.12 "HgN/A
11:20 pm64 °FPassing clouds.3 mph73%30.12 "HgN/A
10:50 pm64 °FClear.3 mph73%30.15 "Hg10 mi
10:20 pm64 °FClear.5 mph78%30.15 "Hg10 mi
9:50 pm66 °FClear.3 mph73%30.15 "Hg10 mi
9:20 pm66 °FClear.5 mph73%30.15 "Hg10 mi
Weather by CustomWeather, © 2017

See weather overviewHow to use our weather pages